Regional Weather Roundup
Issued by NWS Cleveland, OH

Home | Current Version | Previous Version | Text Only | Print | Product List | Glossary Off
Versions: 1 2 3 4 5 6 7 8 9 10 11 12 13 14 15 16 17 18 19 20 21 22 23 24 25 26 27 28 29 30 31 32 33 34 35 36 37 38 39 40 41 42 43 44 45 46 47 48 49 50

016
ASUS41 KCLE 251502
RWRCLE
OHIO REGIONAL WEATHER ROUNDUP
NATIONAL WEATHER SERVICE CLEVELAND, OH
1100 AM EDT SUN SEP 25 2016

NOTE: "FAIR" INDICATES FEW OR NO CLOUDS BELOW 12,000 FEET WITH NO
SIGNIFICANT WEATHER AND/OR OBSTRUCTIONS TO VISIBILITY.

OHZ001>008-015>018-024>027-034-035-043-044-251600-
   NORTHWEST OHIO

CITY           SKY/WX    TMP DP  RH WIND       PRES   REMARKS
DEFIANCE       SUNNY     66  53  63 E5        30.18S
FINDLAY        SUNNY     66  51  58 CALM      30.18R
TOLEDO EXPRESS SUNNY     64  50  60 VRB7      30.19S
TOLEDO EXEC    SUNNY     65  51  60 SE8       30.20S
LIMA           SUNNY     70  55  59 CALM      30.17S
$$

OHZ009>014-019>023-028>033-038-089-251600-
   NORTHEAST OHIO

CITY           SKY/WX    TMP DP  RH WIND       PRES   REMARKS
CLE-HOPKINS    MOSUNNY   66  46  48 VRB6      30.22F
CLE-LAKEFRONT  SUNNY     66  46  48 S9        30.20F
CUY CO. ARPT   MOSUNNY   64  50  59 SE7       30.22F
LORAIN-ELYRIA  SUNNY     63  47  55 SE5       30.21S
ASHTABULA      SUNNY     61  42  49 SE7       30.24F
AKRON-CANTON   MOSUNNY   63  50  62 NE5       30.21S
WOOSTER        SUNNY     63  50  62 VRB3      30.21F
MANSFIELD      SUNNY     65  51  60 E6        30.20S
YOUNGSTOWN     MOSUNNY   61  48  62 E6        30.22S
$$

OHZ042-051>053-060>062-070>072-077>081-251600-
  SOUTHWEST OHIO

CITY           SKY/WX    TMP DP  RH WIND       PRES   REMARKS
CINC-COVINGTON SUNNY     73  62  68 SE3       30.16R
CINC-LUNKEN    SUNNY     72  63  73 CALM      30.16R
HAMILTON       SUNNY     72  60  66 CALM      30.17R
DAYTON         SUNNY     69  57  65 S5        30.17S
WRIGHT-PAT AFB MOSUNNY   70  59  67 VRB1      30.16S
DAYTON GENERAL SUNNY     71  58  63 SE5       30.16R
WILMINGTON     SUNNY     71  60  68 S5        30.16S
$$

OHZ036-037-039>041-045>050-054>059-063>069-073>076-082>088-251600-
  CENTRAL AND SOUTHEAST OHIO

CITY           SKY/WX    TMP DP  RH WIND       PRES   REMARKS
COLUMBUS       SUNNY     68  56  65 SE5       30.17S
OSU AIRPORT    SUNNY     68  57  68 CALM      30.17F
BOLTON FIELD   NOT AVBL
RICKENBACK AFB SUNNY     65  55  69 E5        30.17S
NEWARK         SUNNY     66  52  60 E5        30.18S
MARION         SUNNY     68  52  56 E6        30.19S
LANCASTER      SUNNY     69  56  62 SE6       30.17F
ZANESVILLE     SUNNY     68  52  56 N5        30.19S
NEW PHILLY     SUNNY     66  51  58 VRB3      30.20S
$$




USA.gov is the U.S. government's official web portal to all federal, state and local government web resources and services.